Time,TemperatureF,DewpointF,PressureIn,WindDirection,WindDirectionDegrees,WindSpeedMPH,WindSpeedGustMPH,Humidity,HourlyPrecipIn,Conditions,Clouds,dailyrainin,SolarRadiationWatts/m^2,SoftwareType,DateUTC
2013-08-09 00:00:00,54.0,54.0,-100.00,NNW,343,4.0,10.0,100,-99.99,,,0.00,0.000000,,2013-08-09 07:00:00,
2013-08-09 00:43:00,54.0,54.0,-100.00,NNW,343,4.0,10.0,100,-99.99,,,0.00,0.000000,,2013-08-09 07:43:00,
2013-08-09 00:53:00,54.0,54.0,-100.00,NNW,343,4.0,10.0,100,-99.99,,,0.00,0.000000,,2013-08-09 07:53:00,
2013-08-09 01:00:00,53.0,53.0,-100.00,North,0,3.0,7.0,100,-99.99,,,0.00,0.000000,,2013-08-09 08:00:00,
2013-08-09 01:43:00,53.0,53.0,-100.00,North,0,3.0,7.0,100,-99.99,,,0.00,0.000000,,2013-08-09 08:43:00,
2013-08-09 01:53:00,53.0,53.0,-100.00,North,0,3.0,7.0,100,-99.99,,,0.00,0.000000,,2013-08-09 08:53:00,
2013-08-09 02:00:00,54.0,54.0,-100.00,North,359,2.0,5.0,100,-99.99,,,0.00,0.000000,,2013-08-09 09:00:00,
2013-08-09 02:43:00,54.0,54.0,-100.00,North,359,2.0,5.0,100,-99.99,,,0.00,0.000000,,2013-08-09 09:43:00,
2013-08-09 02:52:00,54.0,54.0,-100.00,North,359,2.0,5.0,100,-99.99,,,0.00,0.000000,,2013-08-09 09:52:00,
2013-08-09 03:00:00,55.0,55.0,-100.00,North,1,2.0,4.0,100,-99.99,,,0.00,0.000000,,2013-08-09 10:00:00,
2013-08-09 03:43:00,55.0,55.0,-100.00,North,1,2.0,4.0,100,-99.99,,,0.00,0.000000,,2013-08-09 10:43:00,
2013-08-09 03:53:00,55.0,55.0,-100.00,North,1,2.0,4.0,100,-99.99,,,0.00,0.000000,,2013-08-09 10:53:00,
2013-08-09 04:00:00,55.0,55.0,-100.00,NNW,343,2.0,5.0,100,-99.99,,,0.00,0.000000,,2013-08-09 11:00:00,
2013-08-09 04:42:00,55.0,55.0,-100.00,NNW,343,2.0,5.0,100,-99.99,,,0.00,0.000000,,2013-08-09 11:42:00,
2013-08-09 04:53:00,55.0,55.0,-100.00,NNW,343,2.0,5.0,100,-99.99,,,0.00,0.000000,,2013-08-09 11:53:00,
2013-08-09 05:00:00,54.0,54.0,-100.00,North,3,3.0,9.0,100,-99.99,,,0.00,0.000000,,2013-08-09 12:00:00,
2013-08-09 05:43:00,54.0,54.0,-100.00,North,3,3.0,9.0,100,-99.99,,,0.00,0.000000,,2013-08-09 12:43:00,
2013-08-09 05:52:00,54.0,54.0,-100.00,North,3,3.0,9.0,100,-99.99,,,0.00,0.000000,,2013-08-09 12:52:00,
2013-08-09 06:00:00,55.0,55.0,-100.00,North,3,3.0,7.0,100,-99.99,,,0.00,0.000000,,2013-08-09 13:00:00,
2013-08-09 06:43:00,55.0,55.0,-100.00,North,3,3.0,7.0,100,-99.99,,,0.00,0.000000,,2013-08-09 13:43:00,
2013-08-09 06:52:00,55.0,55.0,-100.00,North,3,3.0,7.0,100,-99.99,,,0.00,0.000000,,2013-08-09 13:52:00,
2013-08-09 07:00:00,54.0,54.0,-100.00,North,350,4.0,7.0,100,-99.99,,,0.00,14.180000,,2013-08-09 14:00:00,
2013-08-09 07:43:00,54.0,54.0,-100.00,North,350,4.0,7.0,100,-99.99,,,0.00,14.180000,,2013-08-09 14:43:00,
2013-08-09 07:53:00,54.0,54.0,-100.00,North,350,4.0,7.0,100,-99.99,,,0.00,14.180000,,2013-08-09 14:53:00,
2013-08-09 08:00:00,55.0,55.0,-100.00,North,11,2.0,6.0,100,-99.99,,,0.00,90.879997,,2013-08-09 15:00:00,
2013-08-09 08:44:00,55.0,55.0,-100.00,North,11,2.0,6.0,100,-99.99,,,0.00,90.879997,,2013-08-09 15:44:00,
2013-08-09 08:53:00,55.0,55.0,-100.00,North,11,2.0,6.0,100,-99.99,,,0.00,90.879997,,2013-08-09 15:53:00,
2013-08-09 09:00:00,56.0,56.0,-100.00,NNW,346,4.0,6.0,100,-99.99,,,0.00,106.570000,,2013-08-09 16:00:00,
2013-08-09 09:43:00,56.0,56.0,-100.00,NNW,346,4.0,6.0,100,-99.99,,,0.00,106.570000,,2013-08-09 16:43:00,
2013-08-09 09:53:00,56.0,56.0,-100.00,NNW,346,4.0,6.0,100,-99.99,,,0.00,106.570000,,2013-08-09 16:53:00,
2013-08-09 10:00:00,60.0,58.0,-100.00,NNE,32,5.0,13.0,95,-99.99,,,0.00,384.109985,,2013-08-09 17:00:00,
2013-08-09 10:43:00,60.0,58.0,-100.00,NNE,32,5.0,13.0,95,-99.99,,,0.00,384.109985,,2013-08-09 17:43:00,
2013-08-09 10:52:00,60.0,58.0,-100.00,NNE,32,5.0,13.0,95,-99.99,,,0.00,384.109985,,2013-08-09 17:52:00,
2013-08-09 11:00:00,60.0,58.0,-100.00,NNW,333,8.0,14.0,91,-99.99,,,0.00,744.039978,,2013-08-09 18:00:00,
2013-08-09 11:43:00,60.0,58.0,-100.00,NNW,333,8.0,14.0,91,-99.99,,,0.00,744.039978,,2013-08-09 18:43:00,
2013-08-09 11:53:00,60.0,58.0,-100.00,NNW,333,8.0,14.0,91,-99.99,,,0.00,744.039978,,2013-08-09 18:53:00,
2013-08-09 12:00:00,58.0,56.0,-100.00,North,354,9.0,17.0,92,-99.99,,,0.00,883.500000,,2013-08-09 19:00:00,
2013-08-09 12:43:00,58.0,56.0,-100.00,North,354,9.0,17.0,92,-99.99,,,0.00,883.500000,,2013-08-09 19:43:00,
2013-08-09 12:52:00,58.0,56.0,-100.00,North,354,9.0,17.0,92,-99.99,,,0.00,883.500000,,2013-08-09 19:52:00,
2013-08-09 13:00:00,59.0,57.0,-100.00,NNW,340,8.0,15.0,92,-99.99,,,0.00,895.710022,,2013-08-09 20:00:00,
2013-08-09 13:43:00,59.0,57.0,-100.00,NNW,340,8.0,15.0,92,-99.99,,,0.00,895.710022,,2013-08-09 20:43:00,
2013-08-09 13:52:00,59.0,57.0,-100.00,NNW,340,8.0,15.0,92,-99.99,,,0.00,895.710022,,2013-08-09 20:52:00,
2013-08-09 14:00:00,60.0,57.0,-100.00,North,350,9.0,16.0,88,-99.99,,,0.00,884.320007,,2013-08-09 21:00:00,
2013-08-09 14:43:00,60.0,57.0,-100.00,North,350,9.0,16.0,88,-99.99,,,0.00,884.320007,,2013-08-09 21:43:00,
2013-08-09 14:52:00,60.0,57.0,-100.00,North,350,9.0,16.0,88,-99.99,,,0.00,884.320007,,2013-08-09 21:52:00,
2013-08-09 15:00:00,59.0,56.0,-100.00,NNW,344,9.0,16.0,89,-99.99,,,0.00,842.940002,,2013-08-09 22:00:00,
2013-08-09 15:42:00,59.0,56.0,-100.00,NNW,344,9.0,16.0,89,-99.99,,,0.00,842.940002,,2013-08-09 22:42:00,
2013-08-09 15:52:00,59.0,56.0,-100.00,NNW,344,9.0,16.0,89,-99.99,,,0.00,842.940002,,2013-08-09 22:52:00,
2013-08-09 16:00:00,58.0,56.0,-100.00,NNW,346,7.0,15.0,93,-99.99,,,0.00,239.529999,,2013-08-09 23:00:00,
2013-08-09 16:43:00,58.0,56.0,-100.00,NNW,346,7.0,15.0,93,-99.99,,,0.00,239.529999,,2013-08-09 23:43:00,
2013-08-09 16:52:00,58.0,56.0,-100.00,NNW,346,7.0,15.0,93,-99.99,,,0.00,239.529999,,2013-08-09 23:52:00,
2013-08-09 17:00:00,59.0,57.0,-100.00,NNW,346,5.0,12.0,93,-99.99,,,0.00,248.479996,,2013-08-10 00:00:00,
2013-08-09 17:43:00,59.0,57.0,-100.00,NNW,346,5.0,12.0,93,-99.99,,,0.00,248.479996,,2013-08-10 00:43:00,
2013-08-09 17:52:00,59.0,57.0,-100.00,NNW,346,5.0,12.0,93,-99.99,,,0.00,248.479996,,2013-08-10 00:52:00,
2013-08-09 18:00:00,58.0,57.0,-100.00,NNW,342,5.0,9.0,96,-99.99,,,0.00,16.389999,,2013-08-10 01:00:00,
2013-08-09 18:42:00,58.0,57.0,-100.00,NNW,342,5.0,9.0,96,-99.99,,,0.00,16.389999,,2013-08-10 01:42:00,
2013-08-09 18:52:00,58.0,57.0,-100.00,NNW,342,5.0,9.0,96,-99.99,,,0.00,16.389999,,2013-08-10 01:52:00,
2013-08-09 19:00:00,60.0,60.0,-100.00,NNE,29,4.0,10.0,99,-99.99,,,0.00,5.230000,,2013-08-10 02:00:00,
2013-08-09 19:42:00,60.0,60.0,-100.00,NNE,29,4.0,10.0,99,-99.99,,,0.00,5.230000,,2013-08-10 02:42:00,
2013-08-09 19:52:00,60.0,60.0,-100.00,NNE,29,4.0,10.0,99,-99.99,,,0.00,5.230000,,2013-08-10 02:52:00,
2013-08-09 20:00:00,59.0,59.0,-100.00,North,350,3.0,7.0,100,-99.99,,,0.00,2.560000,,2013-08-10 03:00:00,
2013-08-09 20:42:00,59.0,59.0,-100.00,North,350,3.0,7.0,100,-99.99,,,0.00,2.560000,,2013-08-10 03:42:00,
2013-08-09 20:52:00,59.0,59.0,-100.00,North,350,3.0,7.0,100,-99.99,,,0.00,2.560000,,2013-08-10 03:52:00,
2013-08-09 21:00:00,57.0,57.0,-100.00,NNE,30,1.0,4.0,100,-99.99,,,0.01,0.000000,,2013-08-10 04:00:00,
2013-08-09 21:43:00,57.0,57.0,-100.00,NNE,30,1.0,4.0,100,-99.99,,,0.01,0.000000,,2013-08-10 04:43:00,
2013-08-09 21:53:00,57.0,57.0,-100.00,NNE,30,1.0,4.0,100,-99.99,,,0.01,0.000000,,2013-08-10 04:53:00,
2013-08-09 22:00:00,57.0,57.0,-100.00,NNE,19,1.0,3.0,100,-99.99,,,0.01,0.000000,,2013-08-10 05:00:00,
2013-08-09 22:42:00,57.0,57.0,-100.00,NNE,19,1.0,3.0,100,-99.99,,,0.01,0.000000,,2013-08-10 05:42:00,
2013-08-09 22:52:00,57.0,57.0,-100.00,NNE,19,1.0,3.0,100,-99.99,,,0.01,0.000000,,2013-08-10 05:52:00,
2013-08-09 23:00:00,56.0,56.0,-100.00,NNW,339,3.0,6.0,100,-99.99,,,0.01,0.000000,,2013-08-10 06:00:00,
2013-08-09 23:44:00,56.0,56.0,-100.00,NNW,339,3.0,6.0,100,-99.99,,,0.01,0.000000,,2013-08-10 06:44:00,
2013-08-09 23:53:00,56.0,56.0,-100.00,NNW,339,3.0,6.0,100,-99.99,,,0.01,0.000000,,2013-08-10 06:53:00,